User: anonymous   Login
Location: Poughquag
(41.6090°N, 73.6820°W)
Time: 16:43:30
(UTC-04:00)
Language:

S-56A Canister/Altair - Orbit

View from above orbital plane
View from above orbital plane
View from above satellite
View from above satellite

Ground track
Ground track

The orbit data is extracted from the following two-line orbital elements,

1    82U 61004B   20268.22867699 -.00000074 +00000-0 -31552-4 0  9991
2    82 038.8580 192.6289 1174770 200.3859 154.5895 12.26058920819937
Epoch (UTC): 24 September 2020 05:29:17
Eccentricity: 0.1174770
inclination: 38.8580°
perigee height: 633 km
apogee height: 2499 km
right ascension of ascending node: 192.6289°
argument of perigee: 200.3859°
revolutions per day: 12.26058920
mean anomaly at epoch: 154.5895°
orbit number at epoch: 81993

The dashed part of the orbit path shows where the satellite is in the earth's shadow,  

DLR